Location: Piotrkow Trybunalski
(51.4000°N, 19.6830°E)
Time: 00:29:31
(UTC+02:00)

STRAND 1 - Pass Details

Date: 02 April 2023
Orbit: 767 x 779 km, 98.4° (Epoch: 06 June)

Event Time Altitude Azimuth Distance (km) Brightness Sun altitude
Rises 21:37:00 0° 4° (N) 3,254 ? -20.8°
Reaches altitude 10° 21:40:15 10° 342° (NNW) 2,321 ? -21.2°
Maximum altitude 21:43:03 15° 308° (NW) 1,986 ? -21.5°
Drops below altitude 10° 21:45:51 10° 275° (W) 2,313 ? -21.9°
Sets 21:49:06 0° 253° (WSW) 3,235 ? -22.2°
